Hourly Data Report for September 03, 2017

All times are specified in Local Standard Time (LST). Add 1 hour to adjust for Daylight Saving Time where and when it is observed.

EUREKA CLIMATE
NUNAVUT

79°59'21.000" N
85°56'02.000" W
10.00 m
2401199
71613
NEK

Download Data

Hourly Data (September 2017)
Hourly Data Report for September 3, 2017
Temp Definition
°C
Dew Point Temp Definition
°C
Rel Hum Definition
%
Wind Dir Definition
10's deg

Wind Spd Definition
km/h
Visibility Definition
km
Stn Press Definition
kPa
Hmdx Definition


Wind Chill Definition


Weather Definition


TIME
00:00 -3.9 -4.9 93 35 9   100.60   -8 LegendNANA
01:00 -3.7 -5.1 90 36 13   100.64   -9 LegendNANA
02:00 -4.0 -6.1 85 35 15   100.68   -9 LegendNANA
03:00 -4.2 -6.6 84 33 19   100.71   -10 LegendNANA
04:00 -4.7 -7.3 82 32 14   100.74   -10 LegendNANA
05:00 -4.9 -7.3 83 35 5   100.77   -7 LegendNANA
06:00 -5.0 -7.3 84 1 13   100.80   -10 LegendNANA
07:00 -4.3 -6.9 82 34 10   100.85   -8 LegendNANA
08:00 -4.2 -6.5 84 36 11   100.90   -9 LegendNANA
09:00 -4.1 -7.0 80 34 19   100.91   -10 LegendNANA
10:00 -4.3 -7.1 81 33 16   100.95   -10 LegendNANA
11:00 -5.2 -7.8 82 34 21   100.99   -12 LegendNANA
12:00 -5.1 -8.0 81 35 17   101.04   -11 LegendNANA
13:00 -4.5 -9.6 67 31 5   101.09   -7 LegendNANA
14:00 -4.8 -7.7 80 28 25   101.12   -12 LegendNANA
15:00 -4.9 -7.9 79 27 22   101.16   -12 LegendNANA
16:00 -4.8 -8.8 74 8 6   101.21   -8 LegendNANA
17:00 -4.8 -8.4 76 28 18   101.22   -11 LegendNANA
18:00 -5.5 -7.8 84 27 26   101.22   -13 LegendNANA
19:00 -6.0 -8.1 85 28 25   101.26   -14 LegendNANA
20:00 -6.1 -7.7 89 28 28   101.25   -14 LegendNANA
21:00 -6.2 -8.3 85 29 30   101.28   -15 LegendNANA
22:00 -6.1 -8.0 87 28 29   101.27   -14 LegendNANA
23:00 -6.4 -8.1 87 28 36   101.24   -16 LegendNANA

Notes on Data Quality.

Legend

  • E = Estimated
  • M = Missing
  • NA = Not Available
  • ‡ = Partner data that is not subject to review by the National Climate Archives
Date modified: